AWQ646 WADD-WATO

Flight info

Callsign AWQ646
Flight time 0h 52m
Altitude 33000
Route PEBGU W42 NMA W69 HUMAI
Aircraft A320/M-SDE3FGHIRWY/LB1

Departure

Time 2026-04-19 03:43
Airport Denpasar I Gusti Ngurah Rai International Airport (WADD)

Arrival

Time 2026-04-19 04:35
Airport Komodo Airport (WATO)
Time Latitude Longitude Altitude Speed Heading
2026-04-19 03:20 -8.74562 115.16272 21 ft 0 kts 358°
2026-04-19 03:34 -8.74564 115.16273 21 ft 1 kts 358°
2026-04-19 03:35 -8.74579 115.16273 21 ft 2 kts 357°
2026-04-19 03:35 -8.74594 115.16273 21 ft 2 kts 358°
2026-04-19 03:35 -8.74610 115.16274 21 ft 2 kts 357°
2026-04-19 03:35 -8.74625 115.16275 21 ft 2 kts 358°
2026-04-19 03:36 -8.74640 115.16276 20 ft 2 kts 357°
2026-04-19 03:36 -8.74655 115.16277 20 ft 2 kts 348°
2026-04-19 03:36 -8.74669 115.16282 20 ft 2 kts 328°
2026-04-19 03:36 -8.74680 115.16292 20 ft 2 kts 309°
2026-04-19 03:37 -8.74688 115.16305 20 ft 2 kts 290°
2026-04-19 03:37 -8.74692 115.16320 20 ft 2 kts 271°
2026-04-19 03:37 -8.74691 115.16327 21 ft 0 kts 264°
2026-04-19 03:37 -8.74692 115.16327 20 ft 0 kts 264°
2026-04-19 03:39 -8.74692 115.16322 20 ft 1 kts 264°
2026-04-19 03:39 -8.74693 115.16298 20 ft 4 kts 267°
2026-04-19 03:40 -8.74695 115.16253 19 ft 8 kts 269°
2026-04-19 03:40 -8.74697 115.16170 18 ft 14 kts 268°
2026-04-19 03:40 -8.74703 115.16042 16 ft 21 kts 267°
2026-04-19 03:40 -8.74709 115.15873 14 ft 26 kts 268°
2026-04-19 03:41 -8.74717 115.15677 12 ft 29 kts 267°
2026-04-19 03:41 -8.74726 115.15472 12 ft 26 kts 268°
2026-04-19 03:41 -8.74780 115.15388 12 ft 10 kts 185°
2026-04-19 03:41 -8.74857 115.15392 12 ft 11 kts 176°
2026-04-19 03:42 -8.74893 115.15447 12 ft 10 kts 84°
2026-04-19 03:42 -8.74885 115.15613 14 ft 54 kts 88°
2026-04-19 03:42 -8.74861 115.16228 18 ft 119 kts 88°
2026-04-19 03:42 -8.74823 115.17253 51 ft 167 kts 89°
2026-04-19 03:43 -8.74781 115.18451 469 ft 174 kts 88°
2026-04-19 03:43 -8.74730 115.19653 1044 ft 171 kts 88°
2026-04-19 03:43 -8.74681 115.20832 1643 ft 167 kts 88°
2026-04-19 03:43 -8.74643 115.22006 2126 ft 172 kts 89°
2026-04-19 03:44 -8.74592 115.23257 2510 ft 185 kts 89°
2026-04-19 03:44 -8.74535 115.24601 2878 ft 201 kts 89°
2026-04-19 03:44 -8.74474 115.26105 3176 ft 225 kts 89°
2026-04-19 03:44 -8.74408 115.27745 3632 ft 243 kts 89°
2026-04-19 03:45 -8.74336 115.29522 4129 ft 260 kts 88°
2026-04-19 03:45 -8.74262 115.31345 4864 ft 266 kts 88°
2026-04-19 03:45 -8.74186 115.33198 5747 ft 267 kts 88°
2026-04-19 03:45 -8.74110 115.35055 6610 ft 269 kts 87°
2026-04-19 03:46 -8.74032 115.36933 7445 ft 272 kts 87°
2026-04-19 03:46 -8.73952 115.38856 8274 ft 275 kts 87°
2026-04-19 03:46 -8.73806 115.40778 9073 ft 278 kts 84°
2026-04-19 03:46 -8.73602 115.42709 9867 ft 280 kts 83°
2026-04-19 03:47 -8.73389 115.44661 10549 ft 286 kts 83°
2026-04-19 03:47 -8.73168 115.46712 10937 ft 303 kts 83°
2026-04-19 03:47 -8.72940 115.48871 11397 ft 316 kts 83°
2026-04-19 03:47 -8.72713 115.51060 12090 ft 319 kts 83°
2026-04-19 03:48 -8.72481 115.53312 12841 ft 321 kts 83°
2026-04-19 03:48 -8.72253 115.55535 13541 ft 323 kts 83°
2026-04-19 03:48 -8.72023 115.57790 14224 ft 326 kts 83°
2026-04-19 03:48 -8.71790 115.60066 14853 ft 329 kts 83°
2026-04-19 03:49 -8.71551 115.62400 15489 ft 333 kts 83°
2026-04-19 03:49 -8.71315 115.64710 16124 ft 335 kts 83°
2026-04-19 03:49 -8.71078 115.67036 16742 ft 337 kts 83°
2026-04-19 03:49 -8.70836 115.69421 17350 ft 340 kts 83°
2026-04-19 03:50 -8.70593 115.71795 17933 ft 343 kts 83°
2026-04-19 03:50 -8.70348 115.74184 18464 ft 347 kts 83°
2026-04-19 03:50 -8.70096 115.76630 18990 ft 351 kts 83°
2026-04-19 03:50 -8.69843 115.79090 19500 ft 355 kts 83°
2026-04-19 03:51 -8.69586 115.81598 19998 ft 359 kts 83°
2026-04-19 03:51 -8.69328 115.84100 20495 ft 363 kts 83°
2026-04-19 03:51 -8.69065 115.86661 20982 ft 366 kts 83°
2026-04-19 03:51 -8.68801 115.89230 21455 ft 370 kts 83°
2026-04-19 03:52 -8.68534 115.91824 21917 ft 373 kts 83°
2026-04-19 03:52 -8.68268 115.94408 22369 ft 377 kts 83°
2026-04-19 03:52 -8.67995 115.97066 22838 ft 380 kts 83°
2026-04-19 03:52 -8.67722 115.99729 23279 ft 384 kts 83°
2026-04-19 03:53 -8.67445 116.02428 23733 ft 387 kts 83°
2026-04-19 03:53 -8.67166 116.05131 24159 ft 390 kts 83°
2026-04-19 03:53 -8.66885 116.07855 24601 ft 393 kts 83°
2026-04-19 03:53 -8.66600 116.10612 25038 ft 396 kts 82°
2026-04-19 03:54 -8.66314 116.13376 25458 ft 399 kts 82°
2026-04-19 03:54 -8.66024 116.16165 25870 ft 402 kts 82°
2026-04-19 03:54 -8.65731 116.18986 26255 ft 406 kts 82°
2026-04-19 03:54 -8.65436 116.21823 26644 ft 409 kts 82°
2026-04-19 03:55 -8.65139 116.24675 27025 ft 412 kts 82°
2026-04-19 03:55 -8.64839 116.27566 27407 ft 415 kts 82°
2026-04-19 03:55 -8.64536 116.30479 27776 ft 417 kts 82°
2026-04-19 03:55 -8.64233 116.33398 28131 ft 420 kts 82°
2026-04-19 03:56 -8.63928 116.36322 28477 ft 423 kts 81°
2026-04-19 03:56 -8.63618 116.39290 28911 ft 424 kts 82°
2026-04-19 03:56 -8.63310 116.42236 29432 ft 422 kts 81°
2026-04-19 03:56 -8.63007 116.45139 29960 ft 420 kts 82°
2026-04-19 03:57 -8.62701 116.48062 30493 ft 418 kts 81°
2026-04-19 03:57 -8.62394 116.51001 31009 ft 416 kts 81°
2026-04-19 03:57 -8.62095 116.53871 31473 ft 415 kts 81°
2026-04-19 03:57 -8.61792 116.56757 31866 ft 415 kts 81°
2026-04-19 03:58 -8.61485 116.59680 32224 ft 417 kts 81°
2026-04-19 03:58 -8.61181 116.62579 32544 ft 418 kts 81°
2026-04-19 03:58 -8.60873 116.65505 32884 ft 420 kts 81°
2026-04-19 03:59 -8.60261 116.71358 32907 ft 420 kts 81°
2026-04-19 03:59 -8.59650 116.77175 32898 ft 420 kts 81°
2026-04-19 04:00 -8.59035 116.83023 32904 ft 419 kts 81°
2026-04-19 04:00 -8.58414 116.88898 32907 ft 419 kts 81°
2026-04-19 04:01 -8.57797 116.94726 32912 ft 420 kts 81°
2026-04-19 04:01 -8.56863 117.03526 32925 ft 420 kts 81°
2026-04-19 04:02 -8.55974 117.09322 32933 ft 417 kts 75°
2026-04-19 04:02 -8.54515 117.14972 32941 ft 416 kts 71°
2026-04-19 04:03 -8.52951 117.20589 32949 ft 416 kts 71°
2026-04-19 04:03 -8.51393 117.26198 32955 ft 416 kts 72°
2026-04-19 04:04 -8.49839 117.31804 32947 ft 417 kts 72°
2026-04-19 04:04 -8.48524 117.37515 32932 ft 418 kts 77°
2026-04-19 04:05 -8.47857 117.43367 32917 ft 421 kts 84°
2026-04-19 04:05 -8.47860 117.49277 32902 ft 423 kts 90°
2026-04-19 04:06 -8.48150 117.55173 32890 ft 423 kts 90°
2026-04-19 04:06 -8.48442 117.61111 32887 ft 423 kts 90°
2026-04-19 04:07 -8.48729 117.67079 32885 ft 433 kts 90°
2026-04-19 04:07 -8.49019 117.73206 32879 ft 447 kts 90°
2026-04-19 04:08 -8.49320 117.79586 32878 ft 461 kts 90°
2026-04-19 04:08 -8.49629 117.86084 32879 ft 465 kts 90°
2026-04-19 04:09 -8.49937 117.92570 32880 ft 464 kts 90°
2026-04-19 04:09 -8.50242 117.99086 32878 ft 465 kts 90°
2026-04-19 04:10 -8.50545 118.05582 32880 ft 465 kts 90°
2026-04-19 04:10 -8.50846 118.12063 32875 ft 462 kts 90°
2026-04-19 04:11 -8.50997 118.15280 32471 ft 445 kts 90°
2026-04-19 04:11 -8.51141 118.18312 32230 ft 423 kts 90°
2026-04-19 04:11 -8.51277 118.21237 31996 ft 419 kts 90°
2026-04-19 04:11 -8.51410 118.24177 31746 ft 415 kts 90°
2026-04-19 04:12 -8.51541 118.27072 31498 ft 415 kts 90°
2026-04-19 04:12 -8.51671 118.29958 31195 ft 415 kts 90°
2026-04-19 04:12 -8.51805 118.32891 30806 ft 416 kts 90°
2026-04-19 04:12 -8.51937 118.35795 30289 ft 417 kts 90°
2026-04-19 04:13 -8.52068 118.38689 29704 ft 417 kts 90°
2026-04-19 04:13 -8.52202 118.41618 29066 ft 418 kts 90°
2026-04-19 04:13 -8.52333 118.44523 28575 ft 415 kts 90°
2026-04-19 04:13 -8.52465 118.47425 28097 ft 412 kts 90°
2026-04-19 04:14 -8.52595 118.50294 27629 ft 409 kts 90°
2026-04-19 04:14 -8.52723 118.53146 27180 ft 405 kts 90°
2026-04-19 04:14 -8.52849 118.55949 26752 ft 401 kts 91°
2026-04-19 04:14 -8.52976 118.58765 26327 ft 397 kts 91°
2026-04-19 04:15 -8.53100 118.61524 25917 ft 393 kts 91°
2026-04-19 04:15 -8.53221 118.64239 25494 ft 390 kts 91°
2026-04-19 04:15 -8.53298 118.66972 25066 ft 386 kts 88°
2026-04-19 04:15 -8.53136 118.69662 24633 ft 382 kts 82°
2026-04-19 04:16 -8.52716 118.72310 24193 ft 379 kts 77°
2026-04-19 04:16 -8.52142 118.74874 23759 ft 377 kts 76°
2026-04-19 04:16 -8.51540 118.77455 23347 ft 374 kts 76°
2026-04-19 04:16 -8.50948 118.79976 22917 ft 372 kts 76°
2026-04-19 04:17 -8.50357 118.82507 22503 ft 370 kts 77°
2026-04-19 04:17 -8.49772 118.85013 22099 ft 367 kts 77°
2026-04-19 04:17 -8.49187 118.87529 21684 ft 365 kts 77°
2026-04-19 04:17 -8.48609 118.90020 21268 ft 364 kts 77°
2026-04-19 04:18 -8.48039 118.92471 20873 ft 361 kts 77°
2026-04-19 04:18 -8.47471 118.94922 20480 ft 358 kts 77°
2026-04-19 04:18 -8.46903 118.97369 20089 ft 355 kts 77°
2026-04-19 04:18 -8.46341 118.99789 19696 ft 353 kts 77°
2026-04-19 04:19 -8.45786 119.02171 19305 ft 350 kts 77°
2026-04-19 04:19 -8.45234 119.04549 18910 ft 347 kts 77°
2026-04-19 04:19 -8.44686 119.06904 18518 ft 344 kts 77°
2026-04-19 04:19 -8.44138 119.09256 18132 ft 341 kts 77°
2026-04-19 04:20 -8.43603 119.11558 17763 ft 338 kts 77°
2026-04-19 04:20 -8.43063 119.13879 17381 ft 335 kts 77°
2026-04-19 04:20 -8.42534 119.16151 17004 ft 332 kts 77°
2026-04-19 04:20 -8.42008 119.18413 16607 ft 330 kts 77°
2026-04-19 04:21 -8.41487 119.20649 16203 ft 328 kts 77°
2026-04-19 04:21 -8.40972 119.22866 15802 ft 326 kts 77°
2026-04-19 04:21 -8.40449 119.25105 15394 ft 324 kts 77°
2026-04-19 04:21 -8.39935 119.27311 14990 ft 322 kts 77°
2026-04-19 04:22 -8.39429 119.29481 14588 ft 321 kts 77°
2026-04-19 04:22 -8.38915 119.31685 14169 ft 320 kts 77°
2026-04-19 04:22 -8.38407 119.33861 13764 ft 318 kts 77°
2026-04-19 04:22 -8.37902 119.36027 13364 ft 316 kts 77°
2026-04-19 04:23 -8.37373 119.38160 12969 ft 315 kts 74°
2026-04-19 04:23 -8.36700 119.40258 12581 ft 313 kts 70°
2026-04-19 04:23 -8.35902 119.42275 12194 ft 311 kts 68°
2026-04-19 04:23 -8.35056 119.44301 11799 ft 309 kts 68°
2026-04-19 04:24 -8.34222 119.46292 11408 ft 307 kts 68°
2026-04-19 04:24 -8.33392 119.48274 11016 ft 306 kts 68°
2026-04-19 04:24 -8.32574 119.50231 10626 ft 305 kts 68°
2026-04-19 04:24 -8.31758 119.52183 10238 ft 303 kts 68°
2026-04-19 04:25 -8.30947 119.54123 10021 ft 288 kts 68°
2026-04-19 04:25 -8.30195 119.55920 9981 ft 274 kts 68°
2026-04-19 04:25 -8.29446 119.57712 9685 ft 274 kts 68°
2026-04-19 04:25 -8.28719 119.59455 9353 ft 273 kts 68°
2026-04-19 04:26 -8.27975 119.61235 9017 ft 271 kts 68°
2026-04-19 04:26 -8.27251 119.62965 8704 ft 268 kts 68°
2026-04-19 04:26 -8.26531 119.64689 8392 ft 266 kts 68°
2026-04-19 04:26 -8.25818 119.66401 8074 ft 265 kts 68°
2026-04-19 04:27 -8.25102 119.68130 7748 ft 264 kts 68°
2026-04-19 04:27 -8.24400 119.69814 7439 ft 262 kts 68°
2026-04-19 04:27 -8.23690 119.71516 7129 ft 260 kts 68°
2026-04-19 04:27 -8.22991 119.73189 6829 ft 258 kts 68°
2026-04-19 04:28 -8.22297 119.74849 6559 ft 254 kts 68°
2026-04-19 04:28 -8.21623 119.76460 6336 ft 248 kts 68°
2026-04-19 04:28 -8.20960 119.78043 6173 ft 239 kts 68°
2026-04-19 04:28 -8.20348 119.79562 6102 ft 227 kts 75°
2026-04-19 04:29 -8.20193 119.81101 5957 ft 223 kts 96°
2026-04-19 04:29 -8.20539 119.82623 5647 ft 223 kts 105°
2026-04-19 04:29 -8.20978 119.84126 5364 ft 222 kts 106°
2026-04-19 04:29 -8.21466 119.85583 5104 ft 219 kts 120°
2026-04-19 04:30 -8.22553 119.86636 4889 ft 216 kts 154°
2026-04-19 04:30 -8.24024 119.86885 4677 ft 215 kts 182°
2026-04-19 04:30 -8.25491 119.86661 4380 ft 217 kts 189°
2026-04-19 04:30 -8.26997 119.86378 4067 ft 217 kts 185°
2026-04-19 04:31 -8.28495 119.86307 3797 ft 215 kts 175°
2026-04-19 04:31 -8.29994 119.86428 3514 ft 214 kts 171°
2026-04-19 04:31 -8.31464 119.86624 3265 ft 212 kts 170°
2026-04-19 04:31 -8.32929 119.86835 3008 ft 212 kts 170°
2026-04-19 04:32 -8.34387 119.87038 2718 ft 205 kts 170°
2026-04-19 04:32 -8.35774 119.87225 2540 ft 194 kts 171°
2026-04-19 04:32 -8.37093 119.87401 2197 ft 188 kts 171°
2026-04-19 04:32 -8.38360 119.87569 1957 ft 177 kts 171°
2026-04-19 04:33 -8.39533 119.87727 1731 ft 164 kts 172°
2026-04-19 04:33 -8.40613 119.87870 1513 ft 150 kts 172°
2026-04-19 04:33 -8.41622 119.88005 1348 ft 144 kts 171°
2026-04-19 04:33 -8.42619 119.88138 1155 ft 143 kts 170°
2026-04-19 04:34 -8.43604 119.88269 967 ft 142 kts 171°
2026-04-19 04:34 -8.44595 119.88402 775 ft 141 kts 171°
2026-04-19 04:34 -8.45564 119.88526 588 ft 141 kts 171°
2026-04-19 04:34 -8.46541 119.88648 421 ft 140 kts 170°
2026-04-19 04:35 -8.47513 119.88775 294 ft 137 kts 171°
2026-04-19 04:35 -8.48355 119.88891 278 ft 97 kts 172°
2026-04-19 04:35 -8.48859 119.88958 258 ft 48 kts 172°
2026-04-19 04:35 -8.49144 119.88996 249 ft 22 kts 172°
2026-04-19 04:36 -8.49245 119.88963 248 ft 16 kts 265°
2026-04-19 04:36 -8.49224 119.88896 251 ft 9 kts 344°
2026-04-19 04:36 -8.49165 119.88889 252 ft 8 kts 353°
2026-04-19 04:36 -8.49107 119.88881 253 ft 8 kts 353°
2026-04-19 04:37 -8.49052 119.88874 254 ft 7 kts 353°
2026-04-19 04:37 -8.49005 119.88868 256 ft 6 kts 353°
2026-04-19 04:37 -8.48965 119.88863 257 ft 5 kts 353°
2026-04-19 04:37 -8.48924 119.88857 259 ft 6 kts 351°
2026-04-19 04:38 -8.48878 119.88849 261 ft 5 kts 343°
2026-04-19 04:38 -8.48871 119.88830 262 ft 1 kts 258°
2026-04-19 04:38 -8.48874 119.88821 262 ft 1 kts 257°
2026-04-19 04:38 -8.48875 119.88815 262 ft 0 kts 262°
2026-04-19 04:39 -8.48875 119.88809 263 ft 1 kts 262°
2026-04-19 04:39 -8.48877 119.88797 263 ft 2 kts 262°
2026-04-19 04:39 -8.48878 119.88793 263 ft 0 kts 262°